TimeAKST,TemperatureF,Dew PointF,Humidity,Sea Level PressureIn,VisibilityMPH,Wind Direction,Wind SpeedMPH,Gust SpeedMPH,PrecipitationIn,Events,Conditions,WindDirDegrees,DateUTC
12:53 AM,32.0,25.0,75,29.86,10.0,Variable,4.6,-,N/A,,Overcast,0,2012-12-11 09:53:00
1:53 AM,30.9,25.0,79,29.90,10.0,Variable,6.9,16.1,N/A,,Overcast,0,2012-12-11 10:53:00
3:53 AM,30.9,24.1,76,29.91,10.0,Variable,5.8,-,N/A,,Overcast,0,2012-12-11 12:53:00
4:53 AM,30.9,24.1,76,29.93,10.0,Variable,5.8,-,N/A,,Overcast,0,2012-12-11 13:53:00
5:53 AM,30.9,24.1,76,29.93,10.0,South,6.9,-,N/A,,Overcast,180,2012-12-11 14:53:00
6:53 AM,30.9,24.1,76,29.93,10.0,Calm,Calm,-,N/A,,Overcast,0,2012-12-11 15:53:00
7:53 AM,30.0,23.0,75,29.94,10.0,Variable,4.6,-,N/A,,Overcast,0,2012-12-11 16:53:00
8:43 AM,30.2,21.2,69,29.94,10.0,SSW,8.1,-,N/A,,Mostly Cloudy,200,2012-12-11 17:43:00
8:53 AM,30.0,21.9,72,29.94,10.0,South,8.1,-,N/A,,Mostly Cloudy,190,2012-12-11 17:53:00
9:20 AM,28.4,23.0,80,29.92,10.0,South,3.5,-,N/A,,Mostly Cloudy,190,2012-12-11 18:20:00
9:53 AM,28.9,23.0,78,29.93,10.0,South,4.6,-,N/A,,Scattered Clouds,170,2012-12-11 18:53:00
10:53 AM,32.0,21.9,66,29.93,10.0,South,5.8,-,N/A,,Mostly Cloudy,180,2012-12-11 19:53:00
11:53 AM,32.0,24.1,73,29.93,10.0,Variable,3.5,-,N/A,,Overcast,0,2012-12-11 20:53:00
12:53 PM,32.0,25.0,75,29.89,10.0,Calm,Calm,-,N/A,,Overcast,0,2012-12-11 21:53:00
1:53 PM,32.0,26.1,79,29.87,10.0,Calm,Calm,-,N/A,,Clear,0,2012-12-11 22:53:00
2:53 PM,30.9,26.1,82,29.84,10.0,Calm,Calm,-,N/A,,Clear,0,2012-12-11 23:53:00
3:53 PM,30.9,27.0,85,29.83,10.0,Calm,Calm,-,N/A,,Overcast,0,2012-12-12 00:53:00
4:53 PM,30.9,27.0,85,29.83,10.0,Calm,Calm,-,N/A,,Overcast,0,2012-12-12 01:53:00
5:53 PM,30.9,27.0,85,29.81,10.0,Calm,Calm,-,N/A,,Overcast,0,2012-12-12 02:53:00
6:53 PM,30.9,28.0,89,29.78,9.0,Calm,Calm,-,0.00,,Overcast,0,2012-12-12 03:53:00
7:53 PM,30.9,28.0,89,29.73,10.0,Calm,Calm,-,N/A,,Mostly Cloudy,0,2012-12-12 04:53:00
8:53 PM,30.9,28.0,89,29.70,10.0,Calm,Calm,-,N/A,,Overcast,0,2012-12-12 05:53:00
9:53 PM,37.9,34.0,86,29.66,9.0,South,10.4,16.1,0.01,Rain,Light Rain,180,2012-12-12 06:53:00
10:53 PM,39.0,35.1,86,29.64,10.0,South,11.5,20.7,0.00,,Overcast,170,2012-12-12 07:53:00
11:53 PM,41.0,35.1,79,29.59,10.0,SSW,10.4,20.7,0.00,,Overcast,200,2012-12-12 08:53:00